Location: Gälforsberget
(66.6500°N, 22.4167°E)
Time: 07:17:02
(UTC+00:00)

Cosmos 372 Rocket - Pass Details

Date: 11 April 2026
Orbit: 733 x 762 km, 74.1° (Epoch: 12 May)

Event Time Altitude Azimuth Distance (km) Brightness Sun altitude
Rises 19:13:58 0° 213° (SSW) 3,222 7.1 -6.8°
Reaches altitude 10° 19:16:20 10° 212° (SSW) 2,300 6.4 -7.0°
Maximum altitude 19:21:32 76° 128° (SE) 794 4.0 -7.4°
Drops below altitude 10° 19:26:47 10° 43° (NE) 2,308 6.5 -7.8°
Sets 19:29:09 0° 43° (NE) 3,234 7.3 -7.9°
